Torna al catalogo

LIZZIESAT-2

AttivoComunicazioniVLEO
NORAD 62383·PAYLOAD·🇺🇸 United States

Lanciato Dec 21, 2024 da Vandenberg Space Force Base

Loading…

Prossimi Passaggi (prossime 24 ore)

TLE

AggiornatoSource: Space-Track

Epoca: Sep 14, 2026, 03:34 UTC

1 62383U 24247G   26257.14906299  .00006735  00000-0  23034-3 0  9999
2 62383  44.9913 163.6692 0000878 352.7454   7.3417 15.31014751 96601

Traccia LIZZIESAT-2 in tempo reale con AllMySat

Download on the App Store